Showing default

OPS 1264 (DMSP 4A F4), 2980

Orbit data source: Space-Track

OPS 1264 (DMSP 4A F4), 2980 is a payload satellite owned by SAMSO (US) in SSO that was launched on Wed, 11 Oct 1967 UTC via a THOR BURNER 2 launch vehicle from the Air Force Western Test Range (AFWTR). Payload-class satellites include a variety of spacecraft equipped with specific instruments for various scientific and technological missions. These include communications satellites like Starlink; space stations such as the ISS; scientific satellites like the Hubble; Earth observation satellites from companies like Planet Labs, Umbra, and HawkEye 360; GPS; miniature CubeSats for education and research; and military/defense satellites.

Loading next visibility...
Identifier
2980, 1967-096A
Orbit
SSO
Country
Flag of USUS
Related business
Manufacturer
RCA/East Windsor
Mission
Non-operational spacecraft
Bus & Motor
DMSP BLOCK 4A, Unknown motor
Mass
79 kg wet, 79 kg dry
Launch date (UTC)
1967-10-11 (59 years ago)
Launch vehicle
THOR BURNER 2
Launch site
Air Force Western Test Range (AFWTR)
Object type
Payload
Rocket body
Debris
Shape & HBR
OCT CYL, 1.1 m
Radar Cross Section
Medium (>0.1 m² and <1 m²)

Expand to show TLE details & history
Last TLE update: 17 hours ago

TLE from 17 hours ago
0 OPS 1264 (DMSP 4A F4)
1 02980U 67096A   26262.56217539  .00000337  00000-0  73426-4 0  9992
2 02980  99.1765 348.9770 0093031 183.5773 176.4772 14.63069426100923
Epoch: 2026-09-19T13:29Z
TLE epoch observation values (Epoch: 2026-09-19T13:29:31.953Z)
Latitude
Longitude
148.12493°
Altitude
751.823 km
Speed
7.444 km/s
True Right ascension
23h 15m 54s
True Declination
0° 00' 00"
Sunlit
Object was in full shadow at epoch
Visualization orbit readout
Latitude
Unknown
Longitude
Unknown
Altitude
Unknown
Speed
Unknown
Apparent Right ascension
Unknown
Apparent Declination
Unknown
Sunlit
N/A
Visualization observer readout
Local Sidereal Time
23:35:26
Azimuth
Unknown
Elevation
Unknown
Doppler factor
Unknown
Orbital elements
Apogee altitude
746.071 km
Perigee altitude
614.738 km
Semi-major axis
7,058.542 km
Eccentricity
0.0093
Inclination
99.1765°
RAAN
348.977°
Arg. of periapsis
183.5773°
True anomaly
176.54195°
Mean anomaly
176.4772°
Eccentric anomaly
176.50965°
Mean motion
3.65991 °/min
Orbital period
98.36 mins
BSTAR
0.000073426
Loading maneuver chart data...
Computing Atmospheric mass density...
Loading historical data...
Loading historical data...
Loading historical data...
Loading historical data...
Loading historical data...
Loading historical data...
Loading historical data...
Other satellites on launch #96 in the year 1967 (1967-10-11 UTC)

Documentation

Showing up to 5 results
|